Lid_Strength_Index
2 3 2 3 3 3 3 3 3 3 3 3 3 3 3 3 3 6 8 6 5 2 0 4 4 6 9 12 10 11 17 19 17 15 15 12 13 11 10 11 9 8 7 4 2
2 3 3 3 3 3 3 3 3 3 3 3 3 3 4 3 6 8 4 1 0 -1 4 6 7 7 12 12 11 13 17 16 13 12 12 10 13 12 11 12 11 12 9 3 2
3 3 3 3 4 3 3 3 3 4 3 3 3 4 3 4 9 8 -0 -0 0 -1 3 5 7 9 13 12 12 13 15 12 11 10 10 10 11 11 12 13 11 12 13 12 12
3 3 3 4 4 4 4 4 4 4 4 4 4 4 3 6 15 6 -2 -2 -2 1 3 5 7 12 14 14 12 15 12 10 10 9 10 10 9 10 11 10 9 10 10 10 11
4 4 4 4 4 4 5 4 4 4 4 4 4 4 6 10 10 6 1 1 0 3 3 6 8 12 14 13 12 14 13 11 10 9 9 9 10 10 10 8 8 8 8 10 10
4 4 4 4 5 5 4 4 4 4 4 4 4 4 8 13 7 6 6 6 2 3 5 7 9 8 12 12 13 12 12 11 11 12 10 10 10 10 9 8 8 8 8 8 8
4 4 4 4 4 4 4 4 4 4 4 4 4 5 9 11 6 6 6 7 4 4 6 5 6 9 10 11 10 11 13 12 12 12 13 10 11 11 9 8 8 8 8 8 7
4 4 4 4 4 4 4 4 4 4 4 4 4 5 10 6 5 6 6 6 5 3 4 5 5 8 11 10 10 13 14 15 13 12 12 11 14 10 9 8 9 8 8 8 8
5 5 5 4 4 4 4 4 4 5 4 4 5 7 11 4 6 4 5 6 4 4 4 3 7 10 10 13 15 14 16 16 14 11 11 12 13 10 8 9 9 9 8 8 7
5 5 5 5 5 5 5 5 5 5 5 4 4 8 7 7 5 3 4 4 5 5 5 6 9 12 12 16 18 17 16 15 15 12 12 13 12 11 10 10 10 10 8 8 8
6 5 5 5 5 5 6 9 10 10 8 8 7 7 6 4 3 4 3 4 4 7 9 7 11 13 12 12 12 12 13 14 13 11 12 13 12 11 10 11 10 10 9 9 9
6 5 5 5 5 5 7 11 8 8 11 6 5 6 5 4 7 5 3 6 7 10 9 10 12 9 9 9 11 12 13 13 12 11 13 12 13 11 10 11 10 10 10 9 9
5 5 5 5 5 7 8 7 4 6 12 9 6 6 5 4 7 6 4 6 8 10 10 11 10 7 8 9 11 12 13 13 13 11 11 12 13 12 10 10 9 9 9 9 9
5 5 5 5 8 8 9 7 6 6 13 10 8 6 6 5 8 4 3 5 8 10 9 10 7 8 9 10 10 13 10 11 12 12 15 12 17 14 11 11 9 8 9 8 7
5 5 5 5 8 9 7 7 5 6 19 8 7 4 6 8 7 6 3 5 9 9 9 11 9 10 10 10 8 11 9 11 11 11 14 13 16 14 12 12 10 9 8 8 6
4 4 4 6 8 7 6 6 7 13 19 10 8 8 8 7 7 6 6 5 6 9 9 9 6 8 9 8 8 8 10 11 12 12 16 14 15 16 14 11 10 9 7 7 8
4 4 5 5 10 7 6 8 13 18 8 10 11 8 10 10 10 9 9 10 11 14 14 10 9 8 7 9 8 8 12 16 17 17 19 14 15 15 11 9 8 8 8 7 7
5 5 5 5 5 5 7 10 18 11 11 7 8 8 12 10 10 11 11 13 9 10 14 16 17 11 8 9 11 12 11 18 21 20 18 13 16 14 9 7 6 6 6 6 6
5 8 7 5 4 5 8 15 14 11 8 9 9 12 13 11 11 11 12 12 11 9 14 16 15 9 8 7 8 11 13 11 15 16 17 15 13 9 8 7 7 7 7 7 6
7 9 8 3 3 4 9 13 11 7 7 8 14 11 14 13 13 13 13 10 11 9 8 12 17 10 9 8 7 9 10 14 14 21 23 17 17 16 13 11 8 8 9 8 6
9 11 5 3 2 6 13 12 10 7 7 10 12 13 12 13 12 13 13 10 9 9 8 10 12 12 10 11 12 11 11 12 12 14 20 19 18 11 11 10 10 9 9 8 9
10 14 6 4 9 9 12 9 7 8 6 8 9 10 12 12 13 13 14 11 8 8 11 9 12 16 13 10 8 10 11 12 16 16 15 17 17 9 9 9 9 8 7 7 7
10 11 5 5 12 11 8 8 7 8 9 9 10 9 9 11 14 12 11 8 8 9 11 10 14 18 15 12 10 12 10 10 11 13 16 18 17 9 9 9 8 8 7 7 6
10 12 8 8 7 9 10 10 11 7 8 8 9 9 10 11 11 13 12 9 8 8 8 9 13 15 18 16 13 14 12 12 12 17 16 15 15 12 10 10 8 8 8 8 7
8 9 9 13 10 9 9 9 11 11 8 8 9 10 11 13 12 13 11 10 9 8 9 11 15 13 13 12 12 12 13 13 14 14 16 14 14 12 10 10 8 7 7 6 6
9 10 8 9 9 9 9 10 11 10 9 11 11 10 10 12 12 13 11 11 12 10 11 10 15 13 15 12 12 14 12 12 12 12 13 12 14 9 8 7 8 7 7 7 6
8 7 7 8 9 10 10 10 10 8 8 7 9 10 11 10 8 8 8 8 9 11 12 12 13 15 18 14 14 16 13 12 12 11 12 15 12 9 9 8 8 7 6 7 7